FENGYUN 1C DEB

Satellite information

Favourite Embed

Satellite Type and Status

DEBRISIN ORBIT

Key statistics

Satellite FENGYUN 1C DEB at a glance.

Uptime

9617

Days in orbit

Revolutions

≈ 14.7

Per day

Orbit

SSO

Sun Synchronous Orbit

Inclination

98.9

Latest

Satellite identification and parameters

Extended collection of information and parameters for FENGYUN 1C DEB.

Object identification

Identified? True

Debris? True

Object name: FENGYUN 1C DEB

International designator: 1999-025BHW

Object number (NORAD): 31168

Object ID (CCSDS): 31168

Country: PEOPLES REPUBLIC OF CHINA (PRC)

Current information (Y/N): Y

RCS size: SMALL

Orbital parameters

Period: 98.238 minutes

Inclination: 98.8815 deg

SMA: 7052.538 km

Apoapsis: 752.812 km

Periapsis: 595.994 km

RAAN: 12.8214 deg

Eccentricy: 0.0111178

Argument of periapsis: 3.9865 deg

Mean anomaly: 356.2196 deg

Mean motion: 14.6583344 rev/day

Mean motion (dot): 0.00004727 rev/day2

B* drag term: 0.00080021261 1/REarth

Two-line elements (TLE)

Creation date: Sept. 7, 2025, 3:09 a.m.

Reference frame: TEME

Reference center: EARTH

Epoch: Sept. 6, 2025, 2:43 p.m. UTC

TLE line 0: 0 FENGYUN 1C DEB

TLE line 1: 1 31168U 99025BHW 25249.61341331 .00004727 00000-0 80021-3 0 9992

TLE line 2: 2 31168 98.8815 12.8214 0111178 3.9865 356.2196 14.65833440976976

Live tracking on map

Real-time ground track for satellite FENGYUN 1C DEB.

In-orbit conjunctions

A list of the most updated potential collisions computed for object FENGYUN 1C DEB.

Target Orbit TCA Probability of collision Miss distance Type
CZ-6A DEB SSO 2025-07-16 19:32:20 0.0001316959 41.0 (m) DEBRIS
SL-8 R/B LEO 2024-06-04 21:45:41 0.0001843903 133.0 (m) ROCKET BODY

Associated space launch

Chinese polar orbiting meteorological satellite

FENGYUN 1C DEB was lifted into orbit during the mission ‘Long March 4B | Feng Yun 1C’, on board a Long March 4B space rocket.

The launch took place on May 10, 1999, 1:33 a.m. from Launch Complex 7.

For more information about the launch, click the button.

Launch to space Long March 4B | Feng Yun 1C
Long March 4B | Feng Yun 1C

Agency: N/A

Status: Launch Successful

Launch date: May 10, 1999, 1:33 a.m. UTC

Rocket: Long March 4B

Launch pad: Launch Complex 7

Location: Taiyuan Satellite Launch Center, People's Republic of China

...

Latest news about this satellite

There are no fresh news available about this satellite. Check back as we update our databases every day.


Newsletter sign-up

Weekly statistics, charts and insights to help you stay on top of the space industry.